time, Switch, Flow(0), Analog(2)
yyyy/mm/dd HH:MM:SS.fff, True=FILTERED|False=TOTAL, L/min, V
2023/06/08 12:00:04.635, True, 2.018, 0.150530
2023/06/08 12:00:05.139, True, 1.658, 0.151217
2023/06/08 12:00:05.635, True, 1.686, 0.151217
2023/06/08 12:00:06.139, True, 1.658, 0.149767
2023/06/08 12:00:06.643, True, 1.656, 0.148699
2023/06/08 12:00:07.138, True, 1.687, 0.153887
2023/06/08 12:00:07.643, True, 1.657, 0.150683
2023/06/08 12:00:08.147, True, 1.992, 0.150912
2023/06/08 12:00:08.651, True, 1.658, 0.150607
2023/06/08 12:00:09.147, True, 1.681, 0.151522
2023/06/08 12:00:09.651, True, 1.658, 0.150378
2023/06/08 12:00:10.155, True, 1.658, 0.150607
2023/06/08 12:00:10.650, True, 2.022, 0.151827
2023/06/08 12:00:11.155, True, 1.658, 0.150988
2023/06/08 12:00:11.659, True, 1.990, 0.148699
2023/06/08 12:00:12.163, True, 1.658, 0.149386
2023/06/08 12:00:12.659, True, 1.685, 0.152285
2023/06/08 12:00:13.163, True, 1.990, 0.151293
2023/06/08 12:00:13.659, True, 1.685, 0.150454
2023/06/08 12:00:14.163, True, 1.660, 0.149844
2023/06/08 12:00:14.667, True, 1.655, 0.150759
2023/06/08 12:00:15.163, True, 2.022, 0.152209
2023/06/08 12:00:15.667, True, 1.658, 0.151522
2023/06/08 12:00:16.171, True, 1.990, 0.152056
2023/06/08 12:00:16.667, True, 1.686, 0.151904
2023/06/08 12:00:17.171, True, 1.988, 0.152972
2023/06/08 12:00:17.675, True, 1.990, 0.151675
2023/06/08 12:00:18.171, True, 1.685, 0.149844
2023/06/08 12:00:18.675, True, 1.661, 0.151141
2023/06/08 12:00:19.178, True, 1.655, 0.149615
2023/06/08 12:00:19.675, True, 1.685, 0.149157
2023/06/08 12:00:20.179, True, 1.658, 0.152361
2023/06/08 12:00:20.683, True, 1.992, 0.149462
2023/06/08 12:00:21.179, True, 1.683, 0.151598
2023/06/08 12:00:21.683, True, 1.990, 0.154192
2023/06/08 12:00:22.186, True, 1.658, 0.151369
2023/06/08 12:00:22.683, True, 1.685, 0.151217
2023/06/08 12:00:23.186, True, 1.991, 0.149844
2023/06/08 12:00:23.690, True, 1.988, 0.151751
2023/06/08 12:00:24.195, True, 1.658, 0.151369
2023/06/08 12:00:24.691, True, 2.023, 0.151064
2023/06/08 12:00:25.195, True, 1.657, 0.152590
2023/06/08 12:00:25.699, True, 1.660, 0.151064
2023/06/08 12:00:26.195, True, 2.020, 0.149996
2023/06/08 12:00:26.699, True, 1.989, 0.151751
2023/06/08 12:00:27.203, True, 1.658, 0.151446
2023/06/08 12:00:27.699, True, 2.022, 0.151980
2023/06/08 12:00:28.202, True, 1.658, 0.152895
2023/06/08 12:00:28.699, True, 1.685, 0.151598
2023/06/08 12:00:29.203, True, 1.658, 0.150378
2023/06/08 12:00:29.707, True, 1.990, 0.152361
2023/06/08 12:00:30.203, True, 1.687, 0.151141
2023/06/08 12:00:30.707, True, 1.987, 0.152209
2023/06/08 12:00:31.211, True, 1.989, 0.151141
2023/06/08 12:00:31.707, True, 2.022, 0.149844
2023/06/08 12:00:32.211, True, 1.658, 0.150683
2023/06/08 12:00:32.715, True, 1.990, 0.151522
2023/06/08 12:00:33.211, True, 2.022, 0.152056
2023/06/08 12:00:33.715, True, 1.658, 0.152972
2023/06/08 12:00:34.219, True, 1.658, 0.151293
2023/06/08 12:00:34.715, True, 1.685, 0.149691
2023/06/08 12:00:35.219, True, 1.658, 0.151598
2023/06/08 12:00:35.715, True, 1.684, 0.152972
2023/06/08 12:00:36.219, True, 1.990, 0.151675
2023/06/08 12:00:36.723, True, 1.989, 0.153811
2023/06/08 12:00:37.219, True, 1.685, 0.155718
2023/06/08 12:00:37.723, True, 1.990, 0.150301
2023/06/08 12:00:38.227, True, 1.989, 0.152667
2023/06/08 12:00:38.723, True, 1.685, 0.153964
2023/06/08 12:00:39.227, True, 1.990, 0.152590
2023/06/08 12:00:39.731, True, 1.658, 0.153277
2023/06/08 12:00:40.227, True, 2.022, 0.154879
2023/06/08 12:00:40.731, True, 1.658, 0.155718
2023/06/08 12:00:41.235, True, 1.658, 0.155871
2023/06/08 12:00:41.731, True, 1.685, 0.156939
2023/06/08 12:00:42.235, True, 1.993, 0.156786
2023/06/08 12:00:42.739, True, 1.655, 0.158999
2023/06/08 12:00:43.235, True, 1.684, 0.157397
2023/06/08 12:00:43.739, True, 1.990, 0.159533
2023/06/08 12:00:44.234, True, 1.685, 0.156329
2023/06/08 12:00:44.739, True, 1.989, 0.160143
2023/06/08 12:00:45.243, True, 1.658, 0.159152
2023/06/08 12:00:45.739, True, 1.685, 0.158846
2023/06/08 12:00:46.243, True, 1.989, 0.161517
2023/06/08 12:00:46.747, True, 1.658, 0.163043
2023/06/08 12:00:47.243, True, 1.685, 0.160830
2023/06/08 12:00:47.747, True, 1.989, 0.163195
2023/06/08 12:00:48.251, True, 1.658, 0.160830
2023/06/08 12:00:48.747, True, 1.685, 0.161746
2023/06/08 12:00:49.251, True, 1.658, 0.162432
2023/06/08 12:00:49.755, True, 1.658, 0.163348
2023/06/08 12:00:50.251, True, 1.685, 0.161822
2023/06/08 12:00:50.755, True, 1.990, 0.162737
2023/06/08 12:00:51.259, True, 1.658, 0.161517
2023/06/08 12:00:51.755, True, 1.684, 0.161975
2023/06/08 12:00:52.259, True, 1.990, 0.163272
2023/06/08 12:00:52.763, True, 1.658, 0.163806
2023/06/08 12:00:53.259, True, 1.685, 0.160830
2023/06/08 12:00:53.763, True, 1.658, 0.162127
2023/06/08 12:00:54.259, True, 1.685, 0.162127
2023/06/08 12:00:54.763, True, 1.326, 0.163119
2023/06/08 12:00:55.267, True, 1.989, 0.161135
2023/06/08 12:00:55.771, True, 1.658, 0.163500
2023/06/08 12:00:56.267, True, 1.685, 0.163577
2023/06/08 12:00:56.771, True, 1.658, 0.164492
2023/06/08 12:00:57.267, True, 2.022, 0.162966
2023/06/08 12:00:57.770, True, 1.659, 0.165332
2023/06/08 12:00:58.275, True, 1.657, 0.163958
2023/06/08 12:00:58.779, True, 1.658, 0.162661
2023/06/08 12:00:59.275, True, 1.685, 0.163806
2023/06/08 12:00:59.779, True, 1.658, 0.163043
2023/06/08 12:01:00.275, True, 1.685, 0.161898
2023/06/08 12:01:00.779, True, 1.658, 0.162509
2023/06/08 12:01:01.283, True, 1.658, 0.164263
2023/06/08 12:01:01.787, True, 1.658, 0.163882
2023/06/08 12:01:02.283, True, 2.021, 0.163653
2023/06/08 12:01:02.787, True, 1.659, 0.161975
2023/06/08 12:01:03.291, True, 1.989, 0.163729
2023/06/08 12:01:03.787, True, 1.685, 0.163653
2023/06/08 12:01:04.291, True, 1.659, 0.164950
2023/06/08 12:01:04.795, True, 1.657, 0.162356
2023/06/08 12:01:05.291, True, 2.022, 0.165332
2023/06/08 12:01:05.795, True, 1.658, 0.164034
2023/06/08 12:01:06.299, True, 1.658, 0.162814
2023/06/08 12:01:06.795, True, 1.684, 0.162585
2023/06/08 12:01:07.299, True, 1.658, 0.163882
2023/06/08 12:01:07.803, True, 1.658, 0.163195
2023/06/08 12:01:08.299, True, 2.022, 0.161746
2023/06/08 12:01:08.803, True, 1.658, 0.161059
2023/06/08 12:01:09.307, True, 1.990, 0.165942
2023/06/08 12:01:09.803, True, 2.022, 0.161669
2023/06/08 12:01:10.307, True, 1.658, 0.164263
2023/06/08 12:01:10.811, True, 1.658, 0.163195
2023/06/08 12:01:11.307, True, 1.685, 0.165637
2023/06/08 12:01:11.811, True, 1.658, 0.163272
2023/06/08 12:01:12.315, True, 1.990, 0.163882
2023/06/08 12:01:12.811, True, 1.685, 0.163729
2023/06/08 12:01:13.315, True, 1.326, 0.162890
2023/06/08 12:01:13.819, True, 1.992, 0.164950
2023/06/08 12:01:14.315, True, 1.685, 0.164111
2023/06/08 12:01:14.819, True, 1.656, 0.163500
2023/06/08 12:01:15.323, True, 1.658, 0.164569
2023/06/08 12:01:15.819, True, 2.021, 0.166247
2023/06/08 12:01:16.323, True, 1.658, 0.162737
2023/06/08 12:01:16.827, True, 1.658, 0.164416
2023/06/08 12:01:17.323, True, 1.685, 0.162509
2023/06/08 12:01:17.827, True, 1.992, 0.163272
2023/06/08 12:01:18.331, True, 1.656, 0.161822
2023/06/08 12:01:18.827, True, 1.348, 0.163424
2023/06/08 12:01:19.331, True, 1.989, 0.161975
2023/06/08 12:01:19.835, True, 1.658, 0.163043
2023/06/08 12:01:20.331, True, 2.022, 0.163653
2023/06/08 12:01:20.834, True, 1.658, 0.161975
2023/06/08 12:01:21.339, True, 1.658, 0.164263
2023/06/08 12:01:21.835, True, 1.685, 0.163424
2023/06/08 12:01:22.339, True, 1.990, 0.164492
2023/06/08 12:01:22.843, True, 1.658, 0.164111
2023/06/08 12:01:23.339, True, 1.685, 0.162814
2023/06/08 12:01:23.843, True, 1.658, 0.162203
2023/06/08 12:01:24.347, True, 1.989, 0.163577
2023/06/08 12:01:24.843, True, 1.685, 0.162585
2023/06/08 12:01:25.346, True, 1.990, 0.162280
2023/06/08 12:01:25.851, True, 1.658, 0.164187
2023/06/08 12:01:26.347, True, 1.685, 0.162814
2023/06/08 12:01:26.850, True, 1.658, 0.163119
2023/06/08 12:01:27.355, True, 1.658, 0.163272
2023/06/08 12:01:27.851, True, 2.025, 0.164874
2023/06/08 12:01:28.354, True, 1.655, 0.162356
2023/06/08 12:01:28.858, True, 1.658, 0.161517
2023/06/08 12:01:29.363, True, 1.990, 0.160983
2023/06/08 12:01:29.859, True, 1.684, 0.162737
2023/06/08 12:01:30.362, True, 1.658, 0.162280
2023/06/08 12:01:30.867, True, 1.658, 0.163272
2023/06/08 12:01:31.363, True, 1.685, 0.160296
2023/06/08 12:01:31.867, True, 1.659, 0.162203
2023/06/08 12:01:32.371, True, 1.992, 0.161288
2023/06/08 12:01:32.867, True, 1.681, 0.163500
2023/06/08 12:01:33.371, True, 1.993, 0.162737
2023/06/08 12:01:33.875, True, 1.656, 0.164340
2023/06/08 12:01:34.371, True, 1.685, 0.160754
2023/06/08 12:01:34.875, True, 1.658, 0.162585
2023/06/08 12:01:35.371, True, 1.685, 0.162051
2023/06/08 12:01:35.875, True, 1.993, 0.163043
2023/06/08 12:01:36.379, True, 1.658, 0.163882
2023/06/08 12:01:36.882, True, 1.990, 0.164569
2023/06/08 12:01:37.379, True, 1.681, 0.162127
2023/06/08 12:01:37.883, True, 1.658, 0.163806
2023/06/08 12:01:38.386, True, 1.994, 0.162432
2023/06/08 12:01:38.883, True, 1.681, 0.162661
2023/06/08 12:01:39.387, True, 1.989, 0.161975
2023/06/08 12:01:39.883, True, 1.348, 0.160372
2023/06/08 12:01:40.387, True, 1.990, 0.162814
2023/06/08 12:01:40.891, True, 1.657, 0.161440
2023/06/08 12:01:41.394, True, 1.990, 0.163043
2023/06/08 12:01:41.891, True, 1.686, 0.161288
2023/06/08 12:01:42.394, True, 1.657, 0.162356
2023/06/08 12:01:42.899, True, 1.658, 0.162814
2023/06/08 12:01:43.395, True, 2.022, 0.163043
2023/06/08 12:01:43.899, True, 1.658, 0.160372
2023/06/08 12:01:44.403, True, 1.990, 0.162966
2023/06/08 12:01:44.898, True, 1.685, 0.160983
2023/06/08 12:01:45.403, True, 1.658, 0.160296
2023/06/08 12:01:45.906, True, 1.990, 0.162051
2023/06/08 12:01:46.403, True, 1.686, 0.163272
2023/06/08 12:01:46.907, True, 1.656, 0.163272
2023/06/08 12:01:47.411, True, 1.658, 0.162890
2023/06/08 12:01:47.907, True, 2.022, 0.159457
2023/06/08 12:01:48.411, True, 1.661, 0.162509
2023/06/08 12:01:48.915, True, 1.655, 0.161517
2023/06/08 12:01:49.411, True, 1.685, 0.162737
2023/06/08 12:01:49.915, True, 1.658, 0.159991
2023/06/08 12:01:50.419, True, 1.658, 0.162280
2023/06/08 12:01:50.914, True, 2.022, 0.160678
2023/06/08 12:01:51.419, True, 1.989, 0.160906
2023/06/08 12:01:51.923, True, 1.658, 0.160449
2023/06/08 12:01:52.418, True, 2.025, 0.161440
2023/06/08 12:01:52.923, True, 1.656, 0.161288
2023/06/08 12:01:53.427, True, 1.989, 0.162661
2023/06/08 12:01:53.923, True, 1.685, 0.162280
2023/06/08 12:01:54.427, True, 1.989, 0.160525
2023/06/08 12:01:54.930, True, 1.658, 0.159686
2023/06/08 12:01:55.426, True, 1.686, 0.161975
2023/06/08 12:01:55.931, True, 1.987, 0.162127
2023/06/08 12:01:56.435, True, 1.658, 0.162051
2023/06/08 12:01:56.931, True, 2.022, 0.160372
2023/06/08 12:01:57.435, True, 1.989, 0.160296
2023/06/08 12:01:57.939, True, 1.658, 0.160372
2023/06/08 12:01:58.435, True, 2.022, 0.162280
2023/06/08 12:01:58.939, True, 1.658, 0.159991
2023/06/08 12:01:59.443, True, 1.989, 0.161517
2023/06/08 12:01:59.939, True, 1.685, 0.159838
2023/06/08 12:02:00.443, True, 1.658, 0.162737
2023/06/08 12:02:00.947, True, 1.989, 0.161822
2023/06/08 12:02:01.443, True, 1.684, 0.160601
2023/06/08 12:02:01.947, True, 1.658, 0.160983
2023/06/08 12:02:02.450, True, 1.659, 0.163653
2023/06/08 12:02:02.947, True, 2.021, 0.159991
2023/06/08 12:02:03.451, True, 1.658, 0.162432
2023/06/08 12:02:03.947, True, 2.021, 0.160754
2023/06/08 12:02:04.450, True, 1.658, 0.159838
2023/06/08 12:02:04.955, True, 1.990, 0.160143
2023/06/08 12:02:05.451, True, 1.685, 0.160525
2023/06/08 12:02:05.955, True, 1.990, 0.159762
2023/06/08 12:02:06.459, True, 1.657, 0.159991
2023/06/08 12:02:06.963, True, 1.990, 0.162432
2023/06/08 12:02:07.459, True, 1.687, 0.160601
2023/06/08 12:02:07.962, True, 1.656, 0.158618
2023/06/08 12:02:08.467, True, 1.990, 0.160372
2023/06/08 12:02:08.963, True, 1.685, 0.160372
2023/06/08 12:02:09.467, True, 1.658, 0.159228
2023/06/08 12:02:09.971, True, 1.990, 0.159533
2023/06/08 12:02:10.467, True, 1.685, 0.161440
2023/06/08 12:02:10.971, True, 1.657, 0.157855
2023/06/08 12:02:11.475, True, 1.990, 0.161059
2023/06/08 12:02:11.971, True, 1.684, 0.160601
2023/06/08 12:02:12.474, True, 1.658, 0.161059
2023/06/08 12:02:12.979, True, 1.990, 0.158923
2023/06/08 12:02:13.475, True, 2.022, 0.160601
2023/06/08 12:02:13.978, True, 1.658, 0.162280
2023/06/08 12:02:14.483, True, 1.658, 0.162509
2023/06/08 12:02:14.979, True, 2.021, 0.157931
2023/06/08 12:02:15.483, True, 1.658, 0.161975
2023/06/08 12:02:15.978, True, 2.026, 0.158083
2023/06/08 12:02:16.483, True, 1.655, 0.158389
2023/06/08 12:02:16.987, True, 1.658, 0.161212
2023/06/08 12:02:17.482, True, 2.021, 0.159686
2023/06/08 12:02:17.986, True, 1.660, 0.159609
2023/06/08 12:02:18.490, True, 1.988, 0.160906
2023/06/08 12:02:18.986, True, 1.685, 0.160143
2023/06/08 12:02:19.491, True, 1.990, 0.158694
2023/06/08 12:02:19.995, True, 1.658, 0.157626
2023/06/08 12:02:20.490, True, 1.685, 0.158236
2023/06/08 12:02:20.995, True, 1.658, 0.158770
2023/06/08 12:02:21.491, True, 2.022, 0.159838
2023/06/08 12:02:21.994, True, 1.658, 0.160220
2023/06/08 12:02:22.499, True, 1.990, 0.160983
2023/06/08 12:02:22.995, True, 1.684, 0.158083
2023/06/08 12:02:23.499, True, 1.658, 0.158312
2023/06/08 12:02:24.003, True, 1.990, 0.159533
2023/06/08 12:02:24.499, True, 1.685, 0.160525
2023/06/08 12:02:25.003, True, 1.657, 0.158846
2023/06/08 12:02:25.499, True, 1.685, 0.160525
2023/06/08 12:02:26.003, True, 1.658, 0.160601
2023/06/08 12:02:26.507, True, 1.989, 0.159152
2023/06/08 12:02:27.003, True, 1.685, 0.159762
2023/06/08 12:02:27.507, True, 1.989, 0.157778
2023/06/08 12:02:28.011, True, 1.658, 0.156939
2023/06/08 12:02:28.507, True, 1.685, 0.159075
2023/06/08 12:02:29.011, True, 1.990, 0.160067
2023/06/08 12:02:29.507, True, 1.685, 0.158083
2023/06/08 12:02:30.011, True, 1.990, 0.159075
2023/06/08 12:02:30.515, True, 1.989, 0.156786
2023/06/08 12:02:31.011, True, 1.684, 0.159304
2023/06/08 12:02:31.515, True, 1.990, 0.157473
2023/06/08 12:02:32.010, True, 2.022, 0.158160
2023/06/08 12:02:32.515, True, 1.658, 0.157855
2023/06/08 12:02:33.019, True, 1.658, 0.158083
2023/06/08 12:02:33.515, True, 2.022, 0.159075
2023/06/08 12:02:34.019, True, 1.658, 0.156710
2023/06/08 12:02:34.523, True, 1.991, 0.159304
2023/06/08 12:02:35.019, True, 1.683, 0.161135
2023/06/08 12:02:35.523, True, 1.658, 0.161059
2023/06/08 12:02:36.026, True, 1.658, 0.160372
2023/06/08 12:02:36.531, True, 1.658, 0.159380
2023/06/08 12:02:37.027, True, 1.685, 0.156710
2023/06/08 12:02:37.531, True, 1.989, 0.161059
2023/06/08 12:02:38.035, True, 1.658, 0.160983
2023/06/08 12:02:38.531, True, 1.684, 0.157855
2023/06/08 12:02:39.034, True, 1.990, 0.159457
2023/06/08 12:02:39.539, True, 1.658, 0.156939
2023/06/08 12:02:40.034, True, 1.685, 0.160678
2023/06/08 12:02:40.538, True, 1.990, 0.159457
2023/06/08 12:02:41.043, True, 1.658, 0.158846
2023/06/08 12:02:41.539, True, 1.685, 0.159228
2023/06/08 12:02:42.043, True, 1.658, 0.158846
2023/06/08 12:02:42.547, True, 1.658, 0.154879
2023/06/08 12:02:43.042, True, 1.685, 0.158618
2023/06/08 12:02:43.546, True, 1.989, 0.158007
2023/06/08 12:02:44.051, True, 1.658, 0.158923
2023/06/08 12:02:44.547, True, 1.685, 0.159609
2023/06/08 12:02:45.051, True, 1.658, 0.157549
2023/06/08 12:02:45.555, True, 1.658, 0.156863
2023/06/08 12:02:46.050, True, 2.021, 0.156863
2023/06/08 12:02:46.555, True, 1.658, 0.159838
2023/06/08 12:02:47.059, True, 1.658, 0.157015
2023/06/08 12:02:47.563, True, 1.658, 0.158541
2023/06/08 12:02:48.058, True, 1.685, 0.157092
2023/06/08 12:02:48.563, True, 1.658, 0.158312
2023/06/08 12:02:49.067, True, 1.989, 0.157168
2023/06/08 12:02:49.563, True, 1.685, 0.159533
2023/06/08 12:02:50.067, True, 1.992, 0.158923
2023/06/08 12:02:50.571, True, 1.656, 0.158236
2023/06/08 12:02:51.066, True, 2.022, 0.158465
2023/06/08 12:02:51.571, True, 1.658, 0.158007
2023/06/08 12:02:52.075, True, 1.993, 0.158618
2023/06/08 12:02:52.571, True, 1.682, 0.159533
2023/06/08 12:02:53.075, True, 1.993, 0.157931
2023/06/08 12:02:53.579, True, 1.655, 0.157778
2023/06/08 12:02:54.075, True, 1.685, 0.157244
2023/06/08 12:02:54.579, True, 1.989, 0.157626
2023/06/08 12:02:55.083, True, 1.658, 0.156329
2023/06/08 12:02:55.578, True, 1.686, 0.158389
2023/06/08 12:02:56.083, True, 1.988, 0.155566
2023/06/08 12:02:56.586, True, 1.658, 0.157397
2023/06/08 12:02:57.083, True, 2.022, 0.155947
2023/06/08 12:02:57.587, True, 1.658, 0.158312
2023/06/08 12:02:58.090, True, 1.993, 0.158541
2023/06/08 12:02:58.586, True, 1.681, 0.156329
2023/06/08 12:02:59.091, True, 1.658, 0.155337
2023/06/08 12:02:59.594, True, 1.658, 0.157626
2023/06/08 12:03:00.098, True, 1.990, 0.157855
2023/06/08 12:03:00.595, True, 1.684, 0.155108
2023/06/08 12:03:01.098, True, 1.660, 0.160830
2023/06/08 12:03:01.603, True, 1.987, 0.157168
2023/06/08 12:03:02.098, True, 1.685, 0.156405
2023/06/08 12:03:02.603, True, 1.989, 0.156786
2023/06/08 12:03:03.107, True, 1.989, 0.156863
2023/06/08 12:03:03.602, True, 1.685, 0.158465
2023/06/08 12:03:04.107, True, 1.993, 0.157626
2023/06/08 12:03:04.611, True, 1.656, 0.157855
2023/06/08 12:03:05.106, True, 1.684, 0.157473
2023/06/08 12:03:05.610, True, 1.658, 0.158083
2023/06/08 12:03:06.114, True, 1.991, 0.156863
2023/06/08 12:03:06.619, True, 1.657, 0.158312
2023/06/08 12:03:07.114, True, 2.022, 0.156939
2023/06/08 12:03:07.619, True, 1.660, 0.157778
2023/06/08 12:03:08.115, True, 2.023, 0.158312
2023/06/08 12:03:08.618, True, 1.987, 0.157626
2023/06/08 12:03:09.123, True, 1.660, 0.156863
2023/06/08 12:03:09.618, True, 2.021, 0.156100
2023/06/08 12:03:10.122, True, 1.659, 0.157778
2023/06/08 12:03:10.627, True, 1.658, 0.158083
2023/06/08 12:03:11.123, True, 1.683, 0.157931
2023/06/08 12:03:11.627, True, 1.659, 0.155871
2023/06/08 12:03:12.131, True, 1.659, 0.156023
2023/06/08 12:03:12.635, True, 1.990, 0.156863
2023/06/08 12:03:13.130, True, 1.685, 0.159152
2023/06/08 12:03:13.635, True, 1.986, 0.156634
2023/06/08 12:03:14.139, True, 1.660, 0.155261
2023/06/08 12:03:14.634, True, 1.683, 0.157626
2023/06/08 12:03:15.138, True, 1.989, 0.156863
2023/06/08 12:03:15.643, True, 1.659, 0.157244
2023/06/08 12:03:16.139, True, 2.024, 0.158083
2023/06/08 12:03:16.643, True, 1.656, 0.157931
2023/06/08 12:03:17.139, True, 2.022, 0.156558
2023/06/08 12:03:17.643, True, 1.659, 0.158236
2023/06/08 12:03:18.146, True, 1.989, 0.155718
2023/06/08 12:03:18.651, True, 1.658, 0.157321
2023/06/08 12:03:19.147, True, 2.021, 0.156863
2023/06/08 12:03:19.651, True, 1.658, 0.157778
2023/06/08 12:03:20.155, True, 1.989, 0.153048
2023/06/08 12:03:20.658, True, 1.658, 0.157015
2023/06/08 12:03:21.155, True, 1.688, 0.157702
2023/06/08 12:03:21.659, True, 1.987, 0.157626
2023/06/08 12:03:22.155, True, 1.684, 0.157321
2023/06/08 12:03:22.659, True, 1.658, 0.156558
2023/06/08 12:03:23.163, True, 1.990, 0.155642
2023/06/08 12:03:23.659, True, 1.685, 0.156786
2023/06/08 12:03:24.163, True, 1.658, 0.155108
2023/06/08 12:03:24.667, True, 1.658, 0.159533
2023/06/08 12:03:25.163, True, 2.022, 0.157626
2023/06/08 12:03:25.667, True, 1.658, 0.158465
2023/06/08 12:03:26.170, True, 1.989, 0.156329
2023/06/08 12:03:26.667, True, 1.685, 0.155413
2023/06/08 12:03:27.171, True, 1.990, 0.154650
2023/06/08 12:03:27.675, True, 1.659, 0.153964
2023/06/08 12:03:28.171, True, 2.021, 0.157092
2023/06/08 12:03:28.675, True, 1.658, 0.155718
2023/06/08 12:03:29.179, True, 1.658, 0.154345
2023/06/08 12:03:29.675, True, 1.685, 0.156405
2023/06/08 12:03:30.179, True, 1.989, 0.155871
2023/06/08 12:03:30.683, True, 1.658, 0.156939
2023/06/08 12:03:31.179, True, 2.022, 0.155642
2023/06/08 12:03:31.682, True, 1.658, 0.156100
2023/06/08 12:03:32.187, True, 1.990, 0.156634
2023/06/08 12:03:32.683, True, 1.684, 0.157092
2023/06/08 12:03:33.187, True, 1.658, 0.154726
2023/06/08 12:03:33.683, True, 2.022, 0.158694
2023/06/08 12:03:34.187, True, 1.658, 0.157015
2023/06/08 12:03:34.691, True, 1.989, 0.155489
2023/06/08 12:03:35.187, True, 1.686, 0.155337
2023/06/08 12:03:35.691, True, 1.657, 0.157321
2023/06/08 12:03:36.195, True, 1.658, 0.155947
2023/06/08 12:03:36.691, True, 1.685, 0.152819
2023/06/08 12:03:37.195, True, 1.990, 0.155795
2023/06/08 12:03:37.699, True, 1.990, 0.155489
2023/06/08 12:03:38.195, True, 1.685, 0.157244
2023/06/08 12:03:38.699, True, 1.659, 0.154269
2023/06/08 12:03:39.195, True, 2.021, 0.155337
2023/06/08 12:03:39.699, True, 1.989, 0.157092
2023/06/08 12:03:40.203, True, 1.658, 0.155718
2023/06/08 12:03:40.699, True, 1.685, 0.155489
2023/06/08 12:03:41.203, True, 1.660, 0.156252
2023/06/08 12:03:41.707, True, 1.987, 0.157168
2023/06/08 12:03:42.203, True, 1.685, 0.157626
2023/06/08 12:03:42.707, True, 1.989, 0.153811
2023/06/08 12:03:43.211, True, 1.658, 0.155032
2023/06/08 12:03:43.707, True, 2.022, 0.155947
2023/06/08 12:03:44.211, True, 1.658, 0.155566
2023/06/08 12:03:44.715, True, 1.990, 0.157397
2023/06/08 12:03:45.211, True, 1.685, 0.154650
2023/06/08 12:03:45.715, True, 1.658, 0.154803
2023/06/08 12:03:46.219, True, 1.657, 0.154116
2023/06/08 12:03:46.715, True, 2.023, 0.156558
2023/06/08 12:03:47.219, True, 1.657, 0.156634
2023/06/08 12:03:47.723, True, 1.658, 0.156634
2023/06/08 12:03:48.219, True, 1.685, 0.156863
2023/06/08 12:03:48.723, True, 1.658, 0.154879
2023/06/08 12:03:49.226, True, 1.990, 0.154574
2023/06/08 12:03:49.731, True, 1.658, 0.154421
2023/06/08 12:03:50.227, True, 2.022, 0.155795
2023/06/08 12:03:50.731, True, 1.658, 0.156786
2023/06/08 12:03:51.235, True, 1.658, 0.153811
2023/06/08 12:03:51.731, True, 2.022, 0.156252
2023/06/08 12:03:52.235, True, 1.658, 0.157397
2023/06/08 12:03:52.731, True, 2.022, 0.155413
2023/06/08 12:03:53.235, True, 1.658, 0.156710
2023/06/08 12:03:53.739, True, 1.990, 0.155489
2023/06/08 12:03:54.242, True, 1.658, 0.153811
2023/06/08 12:03:54.739, True, 1.685, 0.155566
2023/06/08 12:03:55.243, True, 1.989, 0.157626
2023/06/08 12:03:55.747, True, 1.658, 0.154116
2023/06/08 12:03:56.243, True, 1.685, 0.156786
2023/06/08 12:03:56.747, True, 1.660, 0.153964
2023/06/08 12:03:57.251, True, 1.655, 0.155566
2023/06/08 12:03:57.747, True, 2.021, 0.153506
2023/06/08 12:03:58.251, True, 1.658, 0.155566
2023/06/08 12:03:58.755, True, 1.658, 0.153201
2023/06/08 12:03:59.251, True, 1.687, 0.154116
2023/06/08 12:03:59.755, True, 1.656, 0.154879
2023/06/08 12:04:00.259, True, 1.658, 0.155489
2023/06/08 12:04:00.755, True, 1.685, 0.156710
2023/06/08 12:04:01.259, True, 1.658, 0.157015
2023/06/08 12:04:01.763, True, 1.658, 0.155566
2023/06/08 12:04:02.259, True, 2.022, 0.154498
2023/06/08 12:04:02.763, True, 1.990, 0.151904
2023/06/08 12:04:03.267, True, 1.658, 0.153887
2023/06/08 12:04:03.763, True, 2.022, 0.156100
2023/06/08 12:04:04.267, True, 1.658, 0.154040
2023/06/08 12:04:04.771, True, 1.989, 0.156252
2023/06/08 12:04:05.267, True, 1.685, 0.154879
2023/06/08 12:04:05.771, True, 1.658, 0.153735
2023/06/08 12:04:06.266, True, 2.023, 0.154040
2023/06/08 12:04:06.771, True, 1.657, 0.154421
2023/06/08 12:04:07.275, True, 1.658, 0.152438
2023/06/08 12:04:07.771, True, 1.685, 0.153735
2023/06/08 12:04:08.275, True, 1.990, 0.154574
2023/06/08 12:04:08.779, True, 1.658, 0.153429
2023/06/08 12:04:09.275, True, 2.022, 0.154116
2023/06/08 12:04:09.779, True, 1.658, 0.154421
2023/06/08 12:04:10.283, True, 1.658, 0.155184
2023/06/08 12:04:10.779, True, 1.685, 0.154498
2023/06/08 12:04:11.283, True, 1.658, 0.154879
2023/06/08 12:04:11.787, True, 1.658, 0.154421
2023/06/08 12:04:12.283, True, 1.685, 0.155413
2023/06/08 12:04:12.787, True, 1.658, 0.153429
2023/06/08 12:04:13.291, True, 1.658, 0.154574
2023/06/08 12:04:13.787, True, 2.022, 0.155108